TimeEDT,TemperatureF,Dew PointF,Humidity,Sea Level PressureIn,VisibilityMPH,Wind Direction,Wind SpeedMPH,Gust SpeedMPH,PrecipitationIn,Events,Conditions,WindDirDegrees,DateUTC
12:54 AM,66.9,66.0,97,29.96,7.0,Calm,Calm,-,N/A,,Clear,0,2013-06-25 04:54:00
1:54 AM,64.9,64.0,97,29.94,6.0,Calm,Calm,-,N/A,,Clear,0,2013-06-25 05:54:00
2:02 AM,64.4,64.4,100,29.94,2.5,East,4.6,-,N/A,,Partly Cloudy,90,2013-06-25 06:02:00
2:18 AM,66.2,64.4,94,29.94,5.0,Calm,Calm,-,N/A,,Partly Cloudy,0,2013-06-25 06:18:00
2:54 AM,64.9,64.0,97,29.92,4.0,Calm,Calm,-,N/A,,Partly Cloudy,0,2013-06-25 06:54:00
3:54 AM,64.0,64.0,100,29.92,3.0,Calm,Calm,-,N/A,,Partly Cloudy,0,2013-06-25 07:54:00
4:54 AM,64.0,64.0,100,29.93,4.0,Calm,Calm,-,N/A,,Partly Cloudy,0,2013-06-25 08:54:00
5:09 AM,64.4,62.6,94,29.93,4.0,Calm,Calm,-,N/A,,Partly Cloudy,0,2013-06-25 09:09:00
5:54 AM,64.0,63.0,96,29.93,3.0,Calm,Calm,-,0.01,,Clear,0,2013-06-25 09:54:00
6:03 AM,64.4,62.6,94,29.93,2.5,Calm,Calm,-,N/A,,Scattered Clouds,0,2013-06-25 10:03:00
6:11 AM,64.4,62.6,94,29.93,3.0,Calm,Calm,-,N/A,,Mostly Cloudy,0,2013-06-25 10:11:00
6:30 AM,64.4,64.4,100,29.93,1.5,Calm,Calm,-,N/A,,Overcast,0,2013-06-25 10:30:00
6:46 AM,64.4,64.4,100,29.93,3.0,Calm,Calm,-,N/A,,Overcast,0,2013-06-25 10:46:00
6:54 AM,64.9,64.0,97,29.92,3.0,Calm,Calm,-,N/A,,Mostly Cloudy,0,2013-06-25 10:54:00
7:07 AM,64.4,64.4,100,29.92,1.8,Calm,Calm,-,N/A,,Mostly Cloudy,0,2013-06-25 11:07:00
7:26 AM,66.2,64.4,94,29.92,3.0,Calm,Calm,-,N/A,,Mostly Cloudy,0,2013-06-25 11:26:00
7:38 AM,66.2,64.4,94,29.92,7.0,Calm,Calm,-,N/A,,Scattered Clouds,0,2013-06-25 11:38:00
7:54 AM,69.1,64.9,87,29.92,10.0,Calm,Calm,-,N/A,,Clear,0,2013-06-25 11:54:00
8:54 AM,73.9,66.9,79,29.90,10.0,Calm,Calm,-,N/A,,Clear,0,2013-06-25 12:54:00
9:54 AM,80.1,66.9,64,29.89,10.0,SSE,6.9,-,N/A,,Clear,150,2013-06-25 13:54:00
10:54 AM,81.0,66.0,60,29.90,10.0,SSW,6.9,-,N/A,,Scattered Clouds,210,2013-06-25 14:54:00
11:54 AM,84.9,66.9,55,29.87,10.0,SSE,3.5,-,N/A,,Scattered Clouds,160,2013-06-25 15:54:00
12:54 PM,87.1,64.9,48,29.85,10.0,SW,6.9,-,N/A,,Scattered Clouds,230,2013-06-25 16:54:00
1:54 PM,87.1,64.0,46,29.82,10.0,SSW,10.4,16.1,N/A,,Clear,210,2013-06-25 17:54:00
2:54 PM,88.0,63.0,43,29.79,10.0,WSW,10.4,19.6,N/A,,Clear,250,2013-06-25 18:54:00
3:54 PM,88.0,64.9,46,29.76,10.0,SW,10.4,19.6,N/A,,Clear,220,2013-06-25 19:54:00
4:54 PM,84.0,64.0,51,29.79,10.0,West,8.1,-,N/A,,Mostly Cloudy,270,2013-06-25 20:54:00
5:47 PM,73.4,66.2,78,29.80,7.0,WSW,16.1,28.8,0.01,Rain-Thunderstorm,Light Rain,250,2013-06-25 21:47:00
5:54 PM,73.0,64.9,76,29.79,10.0,West,13.8,27.6,0.01,Rain-Thunderstorm,Light Rain,260,2013-06-25 21:54:00
6:26 PM,69.8,64.4,83,29.79,3.0,Calm,Calm,-,0.04,Rain,Rain,0,2013-06-25 22:26:00
6:54 PM,69.1,66.9,93,29.79,7.0,ENE,3.5,-,0.08,Rain,Light Rain,70,2013-06-25 22:54:00
7:54 PM,70.0,68.0,93,29.78,10.0,Calm,Calm,-,0.00,,Overcast,0,2013-06-25 23:54:00
8:54 PM,68.0,66.9,96,29.78,9.0,Calm,Calm,-,N/A,,Scattered Clouds,0,2013-06-26 00:54:00
9:08 PM,68.0,68.0,100,29.78,6.0,Calm,Calm,-,N/A,,Mostly Cloudy,0,2013-06-26 01:08:00
9:54 PM,68.0,68.0,100,29.79,8.0,Calm,Calm,-,N/A,,Overcast,0,2013-06-26 01:54:00
10:17 PM,68.0,66.2,94,29.80,7.0,Calm,Calm,-,N/A,,Overcast,0,2013-06-26 02:17:00
10:26 PM,68.0,66.2,94,29.79,10.0,Calm,Calm,-,N/A,,Overcast,0,2013-06-26 02:26:00
10:39 PM,68.0,66.2,94,29.79,7.0,Calm,Calm,-,N/A,,Scattered Clouds,0,2013-06-26 02:39:00
10:46 PM,68.0,66.2,94,29.79,5.0,Calm,Calm,-,N/A,,Mostly Cloudy,0,2013-06-26 02:46:00
10:54 PM,66.9,66.9,100,29.78,6.0,Calm,Calm,-,N/A,,Partly Cloudy,0,2013-06-26 02:54:00
11:54 PM,66.9,66.0,97,29.78,5.0,Calm,Calm,-,N/A,,Scattered Clouds,0,2013-06-26 03:54:00